< < Back
Terminal Aerodrome Forecast


Current Version              Previous Versions:   1  2  3  4  5  6  7  8  9  

Terminal Aerodrome Forecast

630
FTUS42 KJAX 051720
TAFGNV
TAF
KGNV 051720Z 0518/0618 29016G28KT P6SM FEW050
     FM052300 29010G15KT P6SM SKC
     FM060100 29005KT P6SM SKC=

Latest METAR

793
SAUS70 KWBC 060500 RRJ
MTRGNV
METAR KGNV 060453Z AUTO 00000KT 10SM CLR 11/07 A2985 RMK AO2 SLP107
T01060067 402560100


USA.gov is the U.S. government's official web portal to all federal, state and local government web resources and services.